Location: Unspecified
(49.2170°N, 0.0000°E)
Time: 18:52:04
(UTC+00:00)

A-11 Canister half - Pass Details

Date: 25 January 2021
Orbit: 1516 x 1684 km, 47.2° (Epoch: 05 March)

Event Time Altitude Azimuth Distance (km) Brightness Sun altitude
Rises 18:33:13 0° 198° (SSW) 4,772 12.0 -17.4°
Reaches altitude 10° 18:36:56 10° 187° (S) 3,764 11.2 -18.0°
Maximum altitude 18:44:23 27° 135° (SE) 2,636 9.9 -19.2°
Enters shadow 18:47:03 24° 110° (ESE) 2,794 9.8 -19.7°
